QPF
0.01 0.00 0.01 0.01 0.01 0.01 0.00 0.01 0.01 0.02 0.02 0.02 0.03 0.03 0.03 0.03 0.02 0.04 0.06 0.05 0.05 0.05 0.06 0.08 0.10 0.11 0.10 0.08 0.08 0.10 0.10 0.08 0.08 0.09 0.08 0.07 0.06 0.05 0.05 0.07 0.07 0.07 0.08
0.01 0.01 0.00 0.00 0.00 0.01 0.01 0.02 0.02 0.03 0.02 0.02 0.02 0.02 0.02 0.02 0.02 0.03 0.07 0.06 0.05 0.05 0.06 0.07 0.10 0.12 0.11 0.08 0.09 0.10 0.10 0.09 0.09 0.12 0.13 0.13 0.12 0.09 0.09 0.10 0.10 0.10 0.10
0.01 0.01 0.00 0.00 0.00 0.00 0.00 0.01 0.01 0.02 0.02 0.02 0.02 0.02 0.02 0.02 0.02 0.02 0.06 0.07 0.05 0.03 0.04 0.06 0.09 0.12 0.08 0.09 0.09 0.08 0.09 0.09 0.10 0.12 0.13 0.13 0.13 0.12 0.11 0.10 0.10 0.12 0.13
0.01 0.01 0.01 0.00 0.00 0.00 0.00 0.00 0.01 0.01 0.02 0.03 0.03 0.03 0.03 0.03 0.03 0.03 0.05 0.07 0.06 0.03 0.03 0.05 0.08 0.10 0.08 0.09 0.07 0.08 0.11 0.11 0.10 0.10 0.11 0.11 0.11 0.12 0.12 0.12 0.12 0.13 0.14
0.01 0.01 0.01 0.01 0.01 0.00 0.00 0.00 0.00 0.00 0.01 0.02 0.03 0.03 0.03 0.03 0.03 0.03 0.05 0.07 0.06 0.04 0.03 0.04 0.07 0.09 0.08 0.08 0.07 0.09 0.10 0.09 0.09 0.10 0.11 0.11 0.13 0.12 0.12 0.10 0.10 0.11 0.13
0.01 0.01 0.01 0.01 0.00 0.00 0.00 0.00 0.00 0.00 0.01 0.02 0.03 0.03 0.04 0.05 0.05 0.05 0.05 0.08 0.07 0.05 0.03 0.03 0.05 0.05 0.06 0.06 0.06 0.08 0.09 0.10 0.10 0.12 0.11 0.12 0.13 0.12 0.11 0.09 0.10 0.11 0.10
0.00 0.00 0.00 0.00 0.00 0.00 0.00 0.00 0.00 0.00 0.01 0.01 0.02 0.03 0.05 0.06 0.06 0.05 0.07 0.11 0.10 0.07 0.04 0.04 0.04 0.04 0.05 0.05 0.05 0.07 0.09 0.11 0.12 0.13 0.13 0.12 0.11 0.11 0.10 0.09 0.10 0.11 0.09
0.00 0.00 0.00 0.00 0.00 0.00 0.00 0.00 0.01 0.01 0.02 0.02 0.03 0.03 0.04 0.05 0.05 0.05 0.06 0.09 0.08 0.07 0.07 0.06 0.04 0.04 0.04 0.05 0.06 0.07 0.09 0.12 0.11 0.10 0.12 0.13 0.12 0.11 0.09 0.08 0.10 0.09 0.06
0.00 0.00 0.00 0.00 0.00 0.00 0.00 0.01 0.01 0.02 0.02 0.02 0.02 0.02 0.02 0.02 0.02 0.03 0.03 0.03 0.04 0.06 0.06 0.05 0.04 0.04 0.05 0.07 0.07 0.07 0.08 0.10 0.09 0.08 0.10 0.09 0.09 0.09 0.08 0.08 0.09 0.09 0.07
0.00 0.00 0.00 0.00 0.00 0.01 0.01 0.01 0.02 0.02 0.02 0.01 0.01 0.01 0.00 0.01 0.01 0.01 0.02 0.02 0.02 0.03 0.03 0.05 0.05 0.06 0.06 0.07 0.07 0.07 0.07 0.07 0.07 0.06 0.06 0.07 0.06 0.07 0.07 0.07 0.08 0.10 0.10
0.01 0.01 0.01 0.01 0.01 0.01 0.02 0.01 0.01 0.01 0.01 0.01 0.00 0.00 0.00 0.00 0.01 0.01 0.02 0.02 0.02 0.03 0.03 0.05 0.06 0.06 0.05 0.05 0.06 0.05 0.04 0.04 0.04 0.04 0.05 0.06 0.06 0.06 0.05 0.06 0.07 0.08 0.09
0.02 0.01 0.01 0.01 0.01 0.01 0.01 0.01 0.01 0.00 0.00 0.01 0.01 0.01 0.01 0.01 0.01 0.02 0.02 0.02 0.03 0.03 0.03 0.04 0.05 0.05 0.04 0.04 0.03 0.03 0.03 0.03 0.03 0.04 0.06 0.06 0.07 0.07 0.07 0.07 0.07 0.07 0.09
0.02 0.01 0.01 0.01 0.01 0.01 0.01 0.01 0.01 0.00 0.00 0.01 0.01 0.01 0.01 0.02 0.02 0.02 0.03 0.03 0.02 0.02 0.03 0.03 0.03 0.04 0.03 0.04 0.04 0.04 0.04 0.04 0.04 0.05 0.05 0.05 0.06 0.06 0.07 0.07 0.07 0.07 0.06
0.01 0.01 0.01 0.00 0.00 0.00 0.01 0.02 0.01 0.00 0.01 0.01 0.01 0.01 0.01 0.02 0.02 0.02 0.03 0.03 0.02 0.02 0.02 0.02 0.03 0.03 0.04 0.04 0.05 0.05 0.05 0.05 0.07 0.07 0.06 0.06 0.05 0.06 0.07 0.07 0.07 0.07 0.07
0.01 0.04 0.06 0.01 0.00 0.00 0.01 0.03 0.01 0.01 0.00 0.00 0.01 0.01 0.01 0.01 0.02 0.02 0.02 0.02 0.02 0.02 0.02 0.02 0.02 0.02 0.02 0.03 0.04 0.06 0.06 0.07 0.08 0.08 0.07 0.06 0.06 0.06 0.07 0.06 0.06 0.07 0.08
0.02 0.03 0.03 0.02 0.01 0.01 0.02 0.03 0.03 0.01 0.01 0.00 0.01 0.01 0.02 0.01 0.01 0.02 0.02 0.02 0.02 0.03 0.03 0.02 0.02 0.02 0.01 0.01 0.02 0.03 0.05 0.07 0.08 0.07 0.07 0.06 0.05 0.04 0.03 0.03 0.03 0.04 0.05
0.03 0.02 0.02 0.02 0.03 0.03 0.03 0.04 0.04 0.03 0.02 0.02 0.01 0.02 0.02 0.02 0.02 0.02 0.03 0.03 0.03 0.04 0.03 0.04 0.04 0.04 0.04 0.03 0.03 0.04 0.05 0.08 0.07 0.05 0.05 0.04 0.03 0.04 0.03 0.03 0.02 0.03 0.02
0.04 0.04 0.03 0.03 0.03 0.04 0.05 0.05 0.05 0.06 0.04 0.04 0.03 0.03 0.03 0.03 0.04 0.04 0.05 0.05 0.04 0.03 0.03 0.04 0.05 0.05 0.05 0.05 0.05 0.04 0.04 0.06 0.07 0.05 0.04 0.04 0.03 0.02 0.03 0.04 0.05 0.04 0.03
0.04 0.05 0.07 0.07 0.06 0.06 0.06 0.06 0.06 0.06 0.05 0.05 0.04 0.04 0.04 0.04 0.04 0.04 0.04 0.04 0.03 0.04 0.04 0.04 0.04 0.04 0.04 0.04 0.03 0.02 0.03 0.04 0.05 0.05 0.05 0.05 0.04 0.04 0.04 0.05 0.05 0.04 0.03
0.05 0.04 0.04 0.06 0.07 0.08 0.08 0.08 0.07 0.05 0.05 0.05 0.05 0.05 0.06 0.05 0.05 0.04 0.04 0.05 0.04 0.04 0.04 0.03 0.04 0.04 0.04 0.03 0.02 0.02 0.03 0.05 0.04 0.05 0.05 0.06 0.06 0.05 0.04 0.04 0.05 0.05 0.04
0.04 0.04 0.04 0.05 0.09 0.11 0.11 0.11 0.08 0.05 0.04 0.04 0.03 0.03 0.04 0.05 0.06 0.05 0.05 0.06 0.05 0.05 0.06 0.06 0.06 0.05 0.03 0.03 0.03 0.03 0.02 0.03 0.04 0.04 0.04 0.04 0.04 0.03 0.02 0.02 0.03 0.04 0.04
0.05 0.04 0.04 0.05 0.07 0.09 0.09 0.09 0.08 0.06 0.05 0.04 0.04 0.04 0.04 0.04 0.03 0.04 0.05 0.05 0.06 0.05 0.05 0.06 0.06 0.05 0.03 0.03 0.03 0.04 0.04 0.04 0.05 0.04 0.03 0.02 0.03 0.03 0.02 0.01 0.01 0.01 0.01
0.05 0.06 0.05 0.04 0.04 0.04 0.04 0.05 0.06 0.05 0.05 0.05 0.05 0.05 0.05 0.05 0.05 0.05 0.06 0.06 0.05 0.05 0.05 0.05 0.05 0.05 0.05 0.04 0.04 0.04 0.04 0.04 0.03 0.03 0.03 0.03 0.02 0.02 0.01 0.01 0.01 0.01 0.01
0.04 0.05 0.04 0.04 0.04 0.04 0.03 0.03 0.04 0.04 0.03 0.04 0.04 0.06 0.07 0.08 0.07 0.07 0.07 0.07 0.06 0.06 0.06 0.05 0.04 0.04 0.04 0.04 0.03 0.03 0.03 0.03 0.03 0.02 0.02 0.02 0.02 0.01 0.01 0.01 0.02 0.02 0.02
0.02 0.02 0.02 0.03 0.04 0.04 0.04 0.03 0.03 0.03 0.04 0.05 0.06 0.06 0.07 0.08 0.08 0.07 0.07 0.07 0.07 0.07 0.07 0.06 0.05 0.04 0.04 0.03 0.03 0.03 0.03 0.03 0.03 0.02 0.02 0.02 0.02 0.02 0.02 0.02 0.02 0.02 0.02
0.02 0.02 0.02 0.03 0.03 0.04 0.04 0.03 0.03 0.03 0.04 0.04 0.06 0.05 0.05 0.05 0.04 0.04 0.05 0.06 0.06 0.07 0.07 0.06 0.04 0.03 0.02 0.03 0.03 0.02 0.02 0.02 0.02 0.01 0.02 0.02 0.03 0.03 0.03 0.03 0.03 0.03 0.03
MSLP
1006.17 1006.51 1006.83 1007.11 1007.39 1007.67 1007.99 1008.35 1008.74 1009.14 1009.51 1009.82 1010.02 1010.12 1010.10 1010.00 1009.85 1009.69 1009.58 1009.54 1009.58 1009.70 1009.88 1010.10 1010.32 1010.51 1010.66 1010.76 1010.82 1010.84 1010.84 1010.84 1010.83 1010.81 1010.78 1010.73 1010.65 1010.54 1010.41 1010.28 1010.19 1010.15 1010.19
1005.36 1005.74 1006.11 1006.45 1006.77 1007.11 1007.47 1007.87 1008.30 1008.75 1009.16 1009.51 1009.75 1009.87 1009.85 1009.72 1009.54 1009.34 1009.18 1009.11 1009.14 1009.28 1009.50 1009.77 1010.05 1010.31 1010.52 1010.67 1010.77 1010.83 1010.87 1010.91 1010.95 1010.98 1011.00 1010.98 1010.91 1010.79 1010.62 1010.42 1010.22 1010.05 1009.95
1004.45 1004.85 1005.24 1005.62 1005.98 1006.35 1006.74 1007.18 1007.66 1008.16 1008.64 1009.05 1009.36 1009.52 1009.53 1009.42 1009.22 1009.00 1008.82 1008.72 1008.73 1008.87 1009.10 1009.40 1009.72 1010.02 1010.28 1010.48 1010.63 1010.74 1010.83 1010.92 1011.01 1011.11 1011.18 1011.22 1011.19 1011.08 1010.89 1010.64 1010.35 1010.07 1009.84
1003.53 1003.91 1004.30 1004.68 1005.05 1005.43 1005.84 1006.31 1006.84 1007.40 1007.95 1008.44 1008.83 1009.07 1009.16 1009.10 1008.93 1008.72 1008.52 1008.40 1008.39 1008.50 1008.72 1009.02 1009.34 1009.66 1009.95 1010.18 1010.36 1010.51 1010.65 1010.79 1010.94 1011.10 1011.24 1011.33 1011.35 1011.28 1011.10 1010.83 1010.49 1010.13 1009.79
1002.71 1003.04 1003.39 1003.74 1004.08 1004.45 1004.86 1005.34 1005.90 1006.51 1007.14 1007.72 1008.21 1008.56 1008.74 1008.76 1008.65 1008.48 1008.29 1008.15 1008.11 1008.18 1008.36 1008.62 1008.93 1009.23 1009.51 1009.75 1009.95 1010.13 1010.30 1010.48 1010.68 1010.89 1011.08 1011.23 1011.31 1011.28 1011.13 1010.87 1010.53 1010.13 1009.73
1002.11 1002.35 1002.63 1002.92 1003.21 1003.54 1003.92 1004.38 1004.95 1005.59 1006.28 1006.95 1007.54 1008.00 1008.29 1008.41 1008.37 1008.24 1008.08 1007.93 1007.86 1007.88 1008.00 1008.20 1008.45 1008.72 1008.98 1009.21 1009.41 1009.60 1009.78 1009.99 1010.22 1010.46 1010.70 1010.89 1011.02 1011.04 1010.94 1010.72 1010.40 1010.02 1009.60
1001.83 1001.97 1002.15 1002.35 1002.56 1002.81 1003.14 1003.56 1004.10 1004.75 1005.46 1006.19 1006.86 1007.41 1007.80 1008.00 1008.05 1007.98 1007.83 1007.68 1007.58 1007.55 1007.60 1007.74 1007.93 1008.14 1008.36 1008.56 1008.75 1008.94 1009.13 1009.35 1009.59 1009.85 1010.11 1010.34 1010.50 1010.58 1010.54 1010.38 1010.12 1009.78 1009.39
1001.92 1001.96 1002.03 1002.13 1002.24 1002.39 1002.63 1002.98 1003.46 1004.07 1004.78 1005.51 1006.21 1006.82 1007.27 1007.55 1007.66 1007.63 1007.51 1007.36 1007.23 1007.15 1007.15 1007.22 1007.35 1007.52 1007.69 1007.87 1008.05 1008.23 1008.42 1008.63 1008.87 1009.14 1009.41 1009.66 1009.86 1009.98 1010.00 1009.91 1009.73 1009.46 1009.13
1002.37 1002.32 1002.29 1002.28 1002.28 1002.32 1002.45 1002.70 1003.10 1003.63 1004.28 1004.97 1005.66 1006.27 1006.74 1007.05 1007.19 1007.19 1007.09 1006.95 1006.80 1006.69 1006.65 1006.67 1006.76 1006.88 1007.03 1007.19 1007.36 1007.54 1007.73 1007.94 1008.18 1008.45 1008.72 1008.98 1009.20 1009.36 1009.43 1009.42 1009.32 1009.13 1008.89
1003.14 1003.01 1002.89 1002.77 1002.66 1002.60 1002.61 1002.75 1003.03 1003.46 1004.00 1004.61 1005.23 1005.79 1006.23 1006.53 1006.68 1006.69 1006.60 1006.46 1006.30 1006.19 1006.12 1006.12 1006.18 1006.29 1006.43 1006.59 1006.76 1006.95 1007.15 1007.36 1007.61 1007.87 1008.14 1008.40 1008.64 1008.83 1008.95 1009.00 1008.98 1008.88 1008.73
1004.11 1003.92 1003.73 1003.53 1003.32 1003.16 1003.07 1003.09 1003.25 1003.55 1003.96 1004.45 1004.95 1005.41 1005.78 1006.03 1006.15 1006.15 1006.07 1005.93 1005.79 1005.68 1005.62 1005.62 1005.69 1005.80 1005.94 1006.11 1006.30 1006.50 1006.71 1006.95 1007.19 1007.46 1007.73 1007.99 1008.24 1008.45 1008.61 1008.71 1008.75 1008.73 1008.66
1005.16 1004.94 1004.69 1004.41 1004.14 1003.89 1003.71 1003.63 1003.67 1003.84 1004.12 1004.46 1004.82 1005.16 1005.43 1005.60 1005.67 1005.65 1005.56 1005.44 1005.33 1005.24 1005.20 1005.22 1005.30 1005.42 1005.58 1005.77 1005.97 1006.19 1006.42 1006.66 1006.92 1007.18 1007.45 1007.72 1007.97 1008.20 1008.39 1008.53 1008.62 1008.67 1008.67
1006.17 1005.92 1005.63 1005.31 1004.98 1004.67 1004.43 1004.27 1004.22 1004.27 1004.41 1004.61 1004.83 1005.03 1005.19 1005.27 1005.28 1005.23 1005.14 1005.04 1004.95 1004.90 1004.89 1004.93 1005.03 1005.17 1005.33 1005.53 1005.73 1005.96 1006.19 1006.44 1006.70 1006.97 1007.24 1007.51 1007.76 1008.00 1008.20 1008.37 1008.51 1008.60 1008.66
1007.05 1006.78 1006.47 1006.11 1005.75 1005.41 1005.13 1004.92 1004.79 1004.75 1004.78 1004.85 1004.94 1005.01 1005.05 1005.05 1005.01 1004.93 1004.84 1004.75 1004.69 1004.67 1004.69 1004.76 1004.86 1005.00 1005.16 1005.34 1005.53 1005.73 1005.95 1006.19 1006.44 1006.70 1006.97 1007.24 1007.49 1007.73 1007.95 1008.14 1008.30 1008.43 1008.52
1007.76 1007.48 1007.14 1006.76 1006.39 1006.04 1005.74 1005.50 1005.33 1005.22 1005.16 1005.13 1005.11 1005.07 1005.01 1004.93 1004.84 1004.73 1004.64 1004.57 1004.54 1004.54 1004.59 1004.66 1004.76 1004.87 1005.00 1005.14 1005.28 1005.45 1005.63 1005.83 1006.06 1006.30 1006.56 1006.81 1007.06 1007.30 1007.52 1007.72 1007.89 1008.05 1008.18
1008.28 1007.98 1007.63 1007.25 1006.88 1006.53 1006.22 1005.98 1005.78 1005.63 1005.51 1005.40 1005.29 1005.17 1005.03 1004.89 1004.75 1004.63 1004.54 1004.48 1004.47 1004.49 1004.54 1004.61 1004.68 1004.75 1004.82 1004.89 1004.97 1005.07 1005.19 1005.34 1005.53 1005.74 1005.96 1006.20 1006.44 1006.67 1006.88 1007.08 1007.26 1007.42 1007.57
1008.65 1008.34 1007.98 1007.60 1007.23 1006.89 1006.59 1006.35 1006.14 1005.97 1005.80 1005.64 1005.46 1005.28 1005.08 1004.89 1004.73 1004.59 1004.50 1004.45 1004.45 1004.47 1004.52 1004.56 1004.59 1004.61 1004.61 1004.60 1004.60 1004.62 1004.67 1004.75 1004.88 1005.05 1005.24 1005.45 1005.67 1005.87 1006.07 1006.25 1006.42 1006.57 1006.71
1008.90 1008.60 1008.24 1007.86 1007.49 1007.16 1006.88 1006.63 1006.42 1006.23 1006.04 1005.84 1005.62 1005.39 1005.15 1004.93 1004.73 1004.59 1004.49 1004.45 1004.44 1004.46 1004.49 1004.50 1004.49 1004.45 1004.38 1004.30 1004.22 1004.16 1004.13 1004.16 1004.23 1004.35 1004.50 1004.67 1004.85 1005.02 1005.19 1005.33 1005.47 1005.59 1005.71
1009.10 1008.80 1008.45 1008.08 1007.73 1007.40 1007.12 1006.88 1006.66 1006.46 1006.24 1006.01 1005.76 1005.50 1005.23 1004.98 1004.77 1004.60 1004.50 1004.44 1004.43 1004.43 1004.44 1004.42 1004.37 1004.28 1004.16 1004.02 1003.88 1003.77 1003.69 1003.66 1003.68 1003.76 1003.87 1004.00 1004.13 1004.26 1004.37 1004.46 1004.54 1004.61 1004.68
1009.29 1009.01 1008.67 1008.31 1007.96 1007.64 1007.36 1007.12 1006.90 1006.68 1006.44 1006.19 1005.91 1005.62 1005.33 1005.05 1004.81 1004.63 1004.50 1004.43 1004.40 1004.38 1004.36 1004.32 1004.25 1004.13 1003.98 1003.82 1003.65 1003.51 1003.40 1003.34 1003.34 1003.37 1003.44 1003.53 1003.61 1003.68 1003.73 1003.75 1003.76 1003.75 1003.74
1009.49 1009.24 1008.92 1008.57 1008.23 1007.92 1007.63 1007.38 1007.15 1006.92 1006.67 1006.39 1006.09 1005.77 1005.45 1005.15 1004.88 1004.67 1004.51 1004.40 1004.34 1004.30 1004.26 1004.20 1004.11 1003.99 1003.84 1003.68 1003.52 1003.38 1003.28 1003.22 1003.20 1003.22 1003.26 1003.30 1003.33 1003.33 1003.30 1003.24 1003.16 1003.07 1002.97
1009.72 1009.49 1009.20 1008.86 1008.53 1008.22 1007.94 1007.68 1007.44 1007.19 1006.93 1006.63 1006.31 1005.96 1005.61 1005.27 1004.97 1004.71 1004.50 1004.35 1004.24 1004.17 1004.10 1004.03 1003.94 1003.83 1003.71 1003.58 1003.45 1003.35 1003.28 1003.24 1003.23 1003.24 1003.25 1003.25 1003.22 1003.16 1003.05 1002.91 1002.74 1002.56 1002.38
1009.98 1009.77 1009.49 1009.18 1008.86 1008.55 1008.27 1008.01 1007.76 1007.50 1007.22 1006.90 1006.55 1006.18 1005.79 1005.41 1005.06 1004.74 1004.48 1004.27 1004.10 1003.98 1003.88 1003.79 1003.71 1003.62 1003.53 1003.45 1003.38 1003.33 1003.30 1003.29 1003.29 1003.29 1003.28 1003.25 1003.16 1003.04 1002.86 1002.64 1002.40 1002.15 1001.90
1010.23 1010.04 1009.78 1009.48 1009.18 1008.88 1008.61 1008.35 1008.09 1007.82 1007.52 1007.18 1006.81 1006.41 1005.98 1005.55 1005.13 1004.75 1004.42 1004.14 1003.91 1003.73 1003.59 1003.48 1003.39 1003.32 1003.27 1003.23 1003.21 1003.21 1003.22 1003.24 1003.25 1003.25 1003.22 1003.14 1003.01 1002.82 1002.59 1002.31 1002.02 1001.73 1001.44
1010.46 1010.28 1010.04 1009.76 1009.48 1009.20 1008.93 1008.67 1008.41 1008.13 1007.81 1007.46 1007.06 1006.62 1006.15 1005.67 1005.19 1004.74 1004.33 1003.98 1003.67 1003.43 1003.24 1003.09 1002.99 1002.93 1002.89 1002.88 1002.90 1002.93 1002.97 1003.00 1003.01 1003.00 1002.93 1002.81 1002.63 1002.40 1002.12 1001.81 1001.50 1001.19 1000.92
1010.67 1010.49 1010.27 1010.01 1009.75 1009.49 1009.23 1008.97 1008.70 1008.41 1008.07 1007.69 1007.26 1006.79 1006.28 1005.75 1005.22 1004.70 1004.22 1003.79 1003.42 1003.11 1002.86 1002.67 1002.54 1002.46 1002.43 1002.42 1002.45 1002.48 1002.52 1002.54 1002.53 1002.48 1002.37 1002.20 1001.98 1001.70 1001.39 1001.08 1000.77 1000.49 1000.26
Thickness
5843 5842 5839 5837 5833 5828 5823 5819 5816 5813 5811 5807 5803 5800 5798 5798 5797 5797 5795 5794 5792 5791 5789 5788 5786 5784 5781 5779 5778 5776 5773 5772 5772 5767 5765 5769 5772 5771 5770 5769 5767 5766 5765
5842 5840 5838 5835 5832 5826 5823 5819 5815 5813 5810 5808 5805 5803 5801 5799 5799 5798 5796 5794 5792 5791 5790 5787 5785 5783 5780 5778 5777 5775 5771 5771 5771 5764 5758 5756 5760 5766 5770 5768 5766 5765 5764
5842 5839 5836 5834 5832 5826 5823 5820 5816 5813 5810 5809 5807 5804 5800 5798 5796 5794 5793 5793 5792 5791 5789 5787 5785 5783 5781 5777 5775 5774 5770 5767 5768 5768 5760 5752 5749 5756 5763 5764 5764 5763 5761
5848 5842 5838 5834 5831 5828 5826 5821 5816 5813 5810 5808 5805 5800 5795 5791 5792 5793 5793 5792 5792 5790 5789 5787 5784 5782 5780 5777 5775 5774 5772 5768 5764 5765 5765 5762 5759 5751 5750 5756 5761 5761 5759
5851 5845 5840 5836 5834 5831 5826 5821 5816 5812 5810 5807 5804 5799 5796 5794 5794 5793 5792 5791 5791 5790 5788 5786 5783 5781 5779 5777 5775 5773 5771 5768 5765 5763 5762 5760 5759 5757 5749 5746 5751 5754 5756
5853 5847 5844 5839 5834 5832 5827 5822 5815 5810 5809 5806 5803 5799 5795 5793 5791 5790 5788 5788 5788 5788 5787 5785 5782 5780 5778 5776 5774 5772 5770 5767 5765 5763 5761 5758 5755 5753 5750 5745 5745 5746 5750
5853 5846 5841 5836 5832 5829 5826 5821 5814 5809 5807 5805 5801 5799 5796 5793 5789 5788 5787 5786 5785 5785 5784 5784 5781 5779 5777 5775 5774 5771 5769 5767 5764 5762 5760 5759 5758 5756 5753 5747 5744 5744 5747
5853 5847 5842 5837 5832 5828 5824 5819 5813 5808 5806 5802 5799 5798 5795 5793 5790 5789 5788 5786 5785 5784 5784 5783 5780 5778 5776 5775 5772 5770 5768 5766 5763 5762 5759 5757 5757 5756 5753 5749 5744 5739 5740
5850 5846 5843 5838 5833 5828 5823 5818 5812 5807 5804 5801 5798 5795 5794 5791 5789 5789 5787 5786 5785 5785 5783 5781 5779 5777 5775 5773 5771 5767 5765 5764 5761 5759 5757 5756 5755 5755 5753 5752 5748 5739 5732
5848 5844 5840 5836 5832 5827 5822 5818 5813 5806 5803 5800 5797 5795 5792 5790 5788 5787 5785 5783 5783 5782 5781 5779 5777 5775 5773 5771 5768 5765 5763 5760 5758 5757 5755 5753 5753 5752 5752 5750 5749 5745 5737
5842 5838 5836 5833 5830 5825 5819 5814 5810 5805 5801 5799 5796 5794 5791 5789 5787 5784 5783 5782 5781 5779 5777 5776 5774 5772 5770 5768 5765 5763 5761 5758 5755 5754 5752 5750 5750 5748 5748 5747 5746 5743 5739
5839 5836 5832 5829 5824 5820 5816 5811 5807 5803 5800 5797 5794 5791 5789 5787 5785 5783 5782 5780 5779 5777 5775 5774 5772 5770 5768 5765 5763 5759 5757 5755 5752 5750 5748 5746 5746 5744 5743 5742 5741 5739 5737
5831 5829 5825 5822 5817 5814 5811 5808 5805 5801 5799 5796 5792 5788 5786 5784 5783 5781 5780 5778 5777 5775 5773 5771 5769 5766 5765 5762 5760 5758 5755 5753 5751 5748 5745 5743 5741 5738 5738 5737 5736 5735 5735
5822 5820 5816 5814 5812 5809 5806 5804 5801 5799 5797 5793 5790 5786 5784 5782 5781 5780 5778 5776 5774 5772 5770 5769 5767 5765 5762 5760 5757 5755 5752 5750 5748 5745 5743 5740 5738 5735 5734 5733 5731 5730 5728
5814 5811 5808 5806 5805 5803 5800 5798 5796 5794 5793 5789 5786 5783 5782 5780 5778 5776 5774 5773 5771 5770 5767 5765 5764 5763 5760 5757 5753 5750 5749 5746 5744 5742 5739 5737 5735 5732 5730 5728 5725 5724 5721
5806 5805 5802 5799 5797 5795 5793 5791 5789 5789 5787 5783 5781 5779 5778 5775 5773 5772 5770 5768 5766 5765 5763 5761 5759 5757 5756 5752 5749 5747 5744 5742 5739 5737 5734 5732 5731 5728 5725 5722 5721 5719 5716
5800 5796 5794 5793 5790 5788 5787 5784 5784 5784 5782 5779 5777 5775 5773 5770 5768 5768 5766 5763 5761 5759 5758 5756 5754 5752 5749 5747 5744 5742 5740 5738 5736 5733 5730 5729 5728 5723 5720 5718 5716 5714 5713
5793 5790 5789 5788 5786 5785 5782 5781 5780 5778 5775 5773 5771 5769 5767 5765 5764 5762 5760 5758 5757 5755 5753 5751 5750 5748 5745 5742 5740 5737 5735 5734 5732 5730 5727 5724 5721 5718 5714 5713 5711 5710 5709
5788 5785 5784 5782 5780 5778 5777 5774 5772 5769 5766 5764 5763 5763 5761 5759 5757 5755 5754 5753 5751 5749 5748 5747 5746 5743 5740 5738 5735 5732 5731 5728 5727 5725 5723 5720 5716 5713 5710 5707 5705 5704 5703
5781 5779 5777 5775 5771 5770 5768 5764 5761 5759 5757 5757 5756 5756 5755 5753 5751 5750 5749 5748 5746 5744 5743 5742 5741 5739 5736 5733 5730 5727 5726 5722 5721 5719 5717 5713 5710 5707 5704 5702 5699 5696 5697
5771 5770 5767 5764 5761 5761 5758 5753 5751 5749 5749 5750 5749 5748 5748 5747 5746 5745 5744 5741 5740 5738 5737 5736 5736 5734 5732 5728 5725 5722 5720 5717 5715 5713 5711 5708 5705 5702 5699 5696 5694 5693 5692
5759 5759 5756 5754 5754 5752 5749 5744 5742 5743 5743 5742 5740 5739 5739 5739 5740 5738 5737 5736 5733 5731 5730 5729 5728 5728 5727 5724 5720 5716 5713 5711 5709 5707 5706 5704 5701 5698 5695 5692 5691 5689 5687
5748 5749 5746 5744 5744 5744 5742 5736 5736 5737 5734 5732 5731 5730 5731 5731 5731 5731 5730 5729 5727 5725 5724 5723 5721 5721 5721 5718 5715 5710 5708 5705 5703 5703 5700 5697 5695 5692 5691 5689 5687 5684 5682
5739 5739 5737 5734 5733 5733 5732 5731 5731 5730 5727 5724 5724 5724 5723 5723 5724 5724 5723 5722 5721 5720 5719 5717 5716 5715 5713 5711 5708 5705 5702 5699 5697 5696 5694 5691 5689 5687 5685 5684 5682 5680 5678
5732 5730 5728 5726 5725 5725 5724 5724 5724 5722 5719 5717 5717 5717 5717 5717 5716 5716 5715 5715 5714 5713 5710 5710 5709 5707 5704 5701 5698 5697 5696 5693 5691 5688 5687 5686 5683 5681 5680 5679 5677 5676 5673
5724 5722 5720 5719 5718 5717 5716 5716 5716 5713 5710 5709 5709 5710 5710 5710 5710 5709 5707 5706 5706 5704 5703 5702 5701 5699 5696 5694 5692 5689 5687 5685 5682 5680 5680 5679 5677 5676 5674 5672 5669 5668 5666